Szeged, Hungary

5:38 PM CEST on May 28, 2017 (GMT +0200)
Szeged

Weather History for LHUD - April, 2013

Change the Weather History Date:

Friday, April 26, 2013

  Actual Average (LRAR) Record (LRAR)
Temperature  
Mean Temperature 66 °F -  
Max Temperature 83 °F 71 °F 80 °F (2013)
Min Temperature 48 °F 50 °F 37 °F (1997)
Growing Degree Days 16 (Base 50)    
Moisture  
Dew Point 51 °F    
Average Humidity 54    
Maximum Humidity 94    
Minimum Humidity 23    
Precipitation  
Precipitation 0.00 in 0.07 in - ()
Sea Level Pressure  
Sea Level Pressure 30.00 in    
Wind  
Wind Speed 4 mph ()    
Max Wind Speed 10 mph    
Max Gust Speed -    
Visibility 18.0 miles    
Events      
Averages and records for this station are not official NWS values.
T = Trace of Precipitation, MM = Missing Value Source: Averaged Metar Reports

Daily Weather History Graph

Daily Weather History Graph

Search for Another Location

Airport or City:

Trip Planner

Search our weather history database for the weather conditions in past years. The results will help you decide how hot, cold, wet, or windy it might be!

Date:

Astronomy

Apr. 26, 2013 Rise Set
Actual Time 5:33 AM CEST 7:41 PM CEST
Civil Twilight 5:01 AM CEST 8:14 PM CEST
Nautical Twilight 4:21 AM CEST 8:54 PM CEST
Astronomical Twilight 3:36 AM CEST 9:40 PM CEST
Moon 8:47 PM CEST (4/26) 5:45 AM CEST (4/26)
Length of Visible Light 15h 13m
Length of Day
14h 07m
Full, 100% of the Moon is Illuminated
Apr 26
Full
May 2
Last Quarter
May 10
New
May 18
First Quarter
May 25
Full

Hourly Weather History & Observations

Time (CEST) Temp. Heat Index Dew Point Humidity Pressure Visibility Wind Dir Wind Speed Gust Speed Precip Events Conditions
12:45 AM 53.6 °F - 46.4 °F 77% 30.15 in - Calm Calm - N/A   Clear
1:45 AM 51.8 °F - 46.4 °F 82% 30.15 in - South 1.2 mph - N/A   Clear
2:00 AM 53 °F - 47 °F 73% 30.16 in 19 mi South 2.2 mph - -   Partly Cloudy
2:45 AM 51.8 °F - 50.0 °F 94% 30.12 in - SE 4.6 mph - N/A   Clear
3:45 AM 50.0 °F - 46.4 °F 87% 30.12 in - Calm Calm - N/A   Clear
4:45 AM 50.0 °F - 48.2 °F 94% 30.09 in - Calm Calm - N/A   Clear
5:45 AM 50.0 °F - 46.4 °F 87% 30.09 in - WNW 2.3 mph - N/A   Clear
6:15 AM 50.0 °F - 46.4 °F 87% 30.09 in - SSE 1.2 mph - N/A   Clear
6:45 AM 53.6 °F - 50.0 °F 88% 30.09 in - SE 3.5 mph - N/A   Clear
7:15 AM 57.2 °F - 51.8 °F 82% 30.09 in - SSE 2.3 mph - N/A   Clear
7:45 AM 60.8 °F - 50.0 °F 68% 30.09 in - SSE 3.5 mph - N/A   Clear
8:00 AM 60 °F - 50 °F 60% 30.10 in 16 mi SSE 2.2 mph - -   Partly Cloudy
8:15 AM 64.4 °F - 51.8 °F 64% 30.09 in - ESE 2.3 mph - N/A   Clear
8:45 AM 66.2 °F - 50.0 °F 56% 30.09 in - SSE 3.5 mph - N/A   Clear
9:15 AM 69.8 °F - 51.8 °F 53% 30.09 in - ESE 4.6 mph - N/A   Clear
9:45 AM 71.6 °F - 53.6 °F 53% 30.09 in - SE 4.6 mph - N/A   Clear
10:15 AM 73.4 °F - 53.6 °F 50% 30.09 in - SSE 5.8 mph - N/A   Clear
10:45 AM 75.2 °F - 51.8 °F 44% 30.06 in - SSE 5.8 mph - N/A   Clear
11:15 AM 77.0 °F - 46.4 °F 34% 30.06 in - South 8.1 mph - N/A   Clear
11:45 AM 78.8 °F - 48.2 °F 34% 30.06 in - South 8.1 mph - N/A   Clear
12:15 PM 80.6 °F - 48.2 °F 32% 30.04 in - South 8.1 mph - N/A   Clear
12:45 PM 78.8 °F - 50.0 °F 36% 30.04 in - South 9.2 mph - N/A   Clear
1:15 PM 80.6 °F - 50.0 °F 34% 30.01 in - South 9.2 mph - N/A   Clear
1:45 PM 80.6 °F - 50.0 °F 34% 30.01 in - SSE 9.2 mph - N/A   Clear
2:00 PM 81 °F - 50 °F 23% 29.99 in 28 mi SSE 8.9 mph - -   Partly Cloudy
2:15 PM 80.6 °F - 50.0 °F 34% 29.98 in - SSE 10.4 mph - N/A   Clear
2:45 PM 82.4 °F - 50.0 °F 32% 29.98 in - South 8.1 mph - N/A   Clear
3:15 PM 82.4 °F - 50.0 °F 32% 29.95 in - SSE 9.2 mph - N/A   Clear
3:45 PM 82.4 °F - 51.8 °F 35% 29.95 in - SSE 9.2 mph - N/A   Clear
4:15 PM 82.4 °F - 50.0 °F 32% 29.92 in - SSE 10.4 mph - N/A   Clear
4:45 PM 82.4 °F - 50.0 °F 32% 29.92 in - SSE 8.1 mph - N/A   Clear
5:15 PM 82.4 °F - 51.8 °F 35% 29.89 in - South 9.2 mph - N/A   Clear
5:45 PM 80.6 °F - 51.8 °F 37% 29.89 in - SSE 10.4 mph - N/A   Clear
6:15 PM 80.6 °F 80.3 °F 53.6 °F 39% 29.86 in - SSE 9.2 mph - N/A   Clear
6:45 PM 77.0 °F - 53.6 °F 44% 29.86 in - SSE 8.1 mph - N/A   Clear
7:15 PM 75.2 °F - 53.6 °F 47% 29.86 in - SSE 8.1 mph - N/A   Clear
7:45 PM 73.4 °F - 53.6 °F 50% 29.86 in - SSE 9.2 mph - N/A   Clear
8:00 PM 73 °F - 53 °F 39% 29.83 in 19 mi SSE 8.9 mph - -   Partly Cloudy
8:15 PM 71.6 °F - 53.6 °F 53% 29.83 in - SSE 9.2 mph - N/A   Clear
8:45 PM 69.8 °F - 53.6 °F 56% 29.86 in - South 5.8 mph - N/A   Clear
9:15 PM 68.0 °F - 53.6 °F 60% 29.86 in - South 4.6 mph - N/A   Clear
9:45 PM 66.2 °F - 51.8 °F 60% 29.86 in - South 4.6 mph - N/A   Clear
10:45 PM 64.4 °F - 51.8 °F 64% 29.83 in - South 6.9 mph - N/A   Clear
11:45 PM 62.6 °F - 51.8 °F 68% 29.83 in - South 5.8 mph - N/A   Clear